,,,PA_Meas_PMT16A,,PR_Meas_QMR101_102,,RH_Meas_QMH101,,SR_Meas_QMS101,,TA_Meas_QMH101,,GenWind,,GenWind,
date,time,status,PA,status,PR,status,RH,status,SR,status,TA,status,DirAvg,status,SpdAvg,
2014-11-08, 00:00:04,VALID,1011.54,VALID,0,INVALID,137.622,VALID,0,VALID,24.2786,VALID,291,VALID,0,
2014-11-08, 00:01:04,VALID,1011.54,VALID,0,INVALID,137.698,VALID,0,VALID,24.2591,VALID,291,VALID,0,
2014-11-08, 00:02:04,VALID,1011.52,VALID,0,INVALID,137.782,VALID,0,VALID,24.2805,VALID,291,VALID,0,
2014-11-08, 00:03:04,VALID,1011.48,VALID,0,INVALID,137.843,VALID,0,VALID,24.2396,VALID,291,VALID,0,
2014-11-08, 00:04:04,VALID,1011.47,VALID,0,INVALID,137.896,VALID,0,VALID,24.2396,VALID,291,VALID,0,
2014-11-08, 00:05:04,VALID,1011.46,VALID,0,INVALID,137.881,VALID,0,VALID,24.2202,VALID,291,VALID,0,
2014-11-08, 00:06:04,VALID,1011.45,VALID,0,INVALID,137.866,VALID,0,VALID,24.2007,VALID,291,VALID,0,
2014-11-08, 00:07:04,VALID,1011.47,VALID,0,INVALID,137.942,VALID,0,VALID,24.1812,VALID,291,VALID,0,
2014-11-08, 00:08:04,VALID,1011.45,VALID,0,INVALID,138.08,VALID,0,VALID,24.1617,VALID,291,VALID,0,
2014-11-08, 00:09:04,VALID,1011.43,VALID,0,INVALID,138.194,VALID,0,VALID,24.1227,VALID,291,VALID,0,
2014-11-08, 00:10:04,VALID,1011.44,VALID,0,INVALID,138.24,VALID,0,VALID,24.1227,VALID,291,VALID,0,
2014-11-08, 00:11:04,VALID,1011.43,VALID,0,INVALID,138.263,VALID,0,VALID,24.1032,VALID,291,VALID,0,
2014-11-08, 00:12:04,VALID,1011.43,VALID,0,INVALID,138.224,VALID,0,VALID,24.1032,VALID,291,VALID,0,
2014-11-08, 00:13:04,VALID,1011.41,VALID,0,INVALID,138.171,VALID,0,VALID,24.0837,VALID,291,VALID,0,
2014-11-08, 00:14:04,VALID,1011.43,VALID,0,INVALID,138.087,VALID,0,VALID,24.0837,VALID,291,VALID,0,
2014-11-08, 00:15:04,VALID,1011.41,VALID,0,INVALID,138.095,VALID,0,VALID,24.0837,VALID,291,VALID,0,
2014-11-08, 00:16:04,VALID,1011.36,VALID,0,INVALID,138.011,VALID,0,VALID,24.0837,VALID,291,VALID,0,
2014-11-08, 00:17:04,VALID,1011.37,VALID,0,INVALID,137.935,VALID,0,VALID,24.0837,VALID,291,VALID,0,
2014-11-08, 00:18:04,VALID,1011.36,VALID,0,INVALID,137.874,VALID,0,VALID,24.0837,VALID,291,VALID,0,
2014-11-08, 00:19:04,VALID,1011.34,VALID,0,INVALID,137.79,VALID,0,VALID,24.0624,VALID,291,VALID,0,
2014-11-08, 00:20:04,VALID,1011.32,VALID,0,INVALID,137.683,VALID,0,VALID,24.1032,VALID,291,VALID,0,
2014-11-08, 00:21:04,VALID,1011.3,VALID,0,INVALID,137.645,VALID,0,VALID,24.0819,VALID,291,VALID,0,
2014-11-08, 00:22:04,VALID,1011.25,VALID,0,INVALID,137.599,VALID,0,VALID,24.1032,VALID,291,VALID,0,
2014-11-08, 00:23:04,VALID,1011.23,VALID,0,INVALID,137.591,VALID,0,VALID,24.0837,VALID,291,VALID,0.0300781,
2014-11-08, 00:24:04,VALID,1011.2,VALID,0,INVALID,137.477,VALID,0,VALID,24.1032,VALID,291,VALID,0.3625,
2014-11-08, 00:25:04,VALID,1011.21,VALID,0,INVALID,137.386,VALID,0,VALID,24.1032,VALID,291,VALID,0.0503906,
2014-11-08, 00:26:04,VALID,1011.17,VALID,0,INVALID,137.302,VALID,0,VALID,24.1227,VALID,291,VALID,0,
2014-11-08, 00:27:04,VALID,1011.13,VALID,0,INVALID,137.21,VALID,0,VALID,24.1227,VALID,291,VALID,0,
2014-11-08, 00:28:04,VALID,1011.13,VALID,0,INVALID,137.111,VALID,0,VALID,24.1227,VALID,291,VALID,0.00273437,
2014-11-08, 00:29:04,VALID,1011.12,VALID,0,INVALID,137.103,VALID,0,VALID,24.1227,VALID,291,VALID,0.1375,
2014-11-08, 00:30:04,VALID,1011.06,VALID,0,INVALID,137.203,VALID,0,VALID,24.1032,VALID,291,VALID,0.316797,
2014-11-08, 00:31:04,VALID,1011.01,VALID,0,INVALID,137.286,VALID,0,VALID,24.1051,VALID,291,VALID,0.214062,
2014-11-08, 00:32:04,VALID,1011.05,VALID,0,INVALID,137.317,VALID,0,VALID,24.0837,VALID,291,VALID,0.182422,
2014-11-08, 00:33:04,VALID,1011.02,VALID,0,INVALID,137.393,VALID,0,VALID,24.0837,VALID,291,VALID,0.175391,
2014-11-08, 00:34:04,VALID,1011,VALID,0,INVALID,137.393,VALID,0,VALID,24.0837,VALID,291,VALID,0,
2014-11-08, 00:35:04,VALID,1011.03,VALID,0,INVALID,137.393,VALID,0,VALID,24.0643,VALID,291,VALID,0,
2014-11-08, 00:36:04,VALID,1011.01,VALID,0,INVALID,137.332,VALID,0,VALID,24.0643,VALID,291,VALID,0,
2014-11-08, 00:37:04,VALID,1010.99,VALID,0,INVALID,137.317,VALID,0,VALID,24.0643,VALID,291,VALID,0.134766,
2014-11-08, 00:38:04,VALID,1010.99,VALID,0,INVALID,137.309,VALID,0,VALID,24.0856,VALID,291,VALID,0.00117188,
2014-11-08, 00:39:04,VALID,1010.99,VALID,0,INVALID,137.332,VALID,0,VALID,24.0661,VALID,291,VALID,0,
2014-11-08, 00:40:04,VALID,1010.97,VALID,0,INVALID,137.34,VALID,0,VALID,24.0643,VALID,291,VALID,0,
2014-11-08, 00:41:04,VALID,1010.97,VALID,0,INVALID,137.332,VALID,0,VALID,24.0448,VALID,291,VALID,0,
2014-11-08, 00:42:04,VALID,1010.96,VALID,0,INVALID,137.34,VALID,0,VALID,24.0448,VALID,291,VALID,0,
2014-11-08, 00:43:04,VALID,1010.96,VALID,0,INVALID,137.264,VALID,0,VALID,24.0466,VALID,291,VALID,0,
2014-11-08, 00:44:04,VALID,1010.93,VALID,0,INVALID,137.248,VALID,0,VALID,24.0643,VALID,291,VALID,0,
2014-11-08, 00:45:04,VALID,1010.95,VALID,0,INVALID,137.164,VALID,0,VALID,24.0643,VALID,291,VALID,0,
2014-11-08, 00:46:04,VALID,1010.92,VALID,0,INVALID,137.149,VALID,0,VALID,24.0643,VALID,291,VALID,0,
2014-11-08, 00:47:04,VALID,1010.93,VALID,0,INVALID,137.103,VALID,0,VALID,24.0643,VALID,291,VALID,0,
2014-11-08, 00:48:04,VALID,1010.92,VALID,0,INVALID,137.042,VALID,0,VALID,24.0643,VALID,291,VALID,0,
2014-11-08, 00:49:04,VALID,1010.94,VALID,0,INVALID,137.042,VALID,0,VALID,24.0643,VALID,291,VALID,0,
2014-11-08, 00:50:04,VALID,1010.92,VALID,0,INVALID,137.027,VALID,0,VALID,24.0837,VALID,291,VALID,0,
2014-11-08, 00:51:04,VALID,1010.93,VALID,0,INVALID,136.943,VALID,0,VALID,24.1032,VALID,291,VALID,0.596484,
2014-11-08, 00:52:04,VALID,1010.91,VALID,0,INVALID,136.821,VALID,0,VALID,24.1032,VALID,291,VALID,0,
2014-11-08, 00:53:04,VALID,1010.89,VALID,0,INVALID,136.837,VALID,0,VALID,24.1227,VALID,291,VALID,0,
2014-11-08, 00:54:04,VALID,1010.87,VALID,0,INVALID,136.844,VALID,0,VALID,24.1032,VALID,291,VALID,0,
2014-11-08, 00:55:04,VALID,1010.87,VALID,0,INVALID,136.867,VALID,0,VALID,24.144,VALID,291,VALID,0.415625,
2014-11-08, 00:56:04,VALID,1010.88,VALID,0,INVALID,136.875,VALID,0,VALID,24.1227,VALID,291,VALID,0.191406,
2014-11-08, 00:57:04,VALID,1010.89,VALID,0,INVALID,136.837,VALID,0,VALID,24.1422,VALID,291,VALID,0.554297,
2014-11-08, 00:58:04,VALID,1010.9,VALID,0,INVALID,136.852,VALID,0,VALID,24.1422,VALID,292,VALID,0.807031,
2014-11-08, 00:59:04,VALID,1010.88,VALID,0,INVALID,136.943,VALID,0,VALID,24.1422,VALID,292,VALID,0.575391,
2014-11-08, 01:00:04,VALID,1010.9,VALID,0,INVALID,137.073,VALID,0,VALID,24.1422,VALID,292,VALID,0.742578,
2014-11-08, 01:01:04,VALID,1010.89,VALID,0,INVALID,137.233,VALID,0,VALID,24.1422,VALID,292,VALID,0.487109,
2014-11-08, 01:02:04,VALID,1010.89,VALID,0,INVALID,137.355,VALID,0,VALID,24.1227,VALID,292,VALID,0.457812,
2014-11-08, 01:03:04,VALID,1010.91,VALID,0,INVALID,137.454,VALID,0,VALID,24.1422,VALID,292,VALID,0.6,
2014-11-08, 01:04:04,VALID,1010.86,VALID,0,INVALID,137.675,VALID,0,VALID,24.1227,VALID,292,VALID,0.473437,
2014-11-08, 01:05:04,VALID,1010.86,VALID,0,INVALID,137.881,VALID,0,VALID,24.1032,VALID,292,VALID,0.460547,
2014-11-08, 01:06:04,VALID,1010.86,VALID,0,INVALID,137.988,VALID,0,VALID,24.1032,VALID,292,VALID,0.644141,
2014-11-08, 01:07:04,VALID,1010.85,VALID,0,INVALID,138.057,VALID,0,VALID,24.1227,VALID,292,VALID,0.583203,
2014-11-08, 01:08:04,VALID,1010.86,VALID,0,INVALID,138.125,VALID,0,VALID,24.1227,VALID,291,VALID,0.602344,
2014-11-08, 01:09:04,VALID,1010.82,VALID,0,INVALID,138.293,VALID,0,VALID,24.1032,VALID,291,VALID,0.532031,
2014-11-08, 01:10:04,VALID,1010.8,VALID,0,INVALID,138.491,VALID,0,VALID,24.0837,VALID,291,VALID,0.753125,
2014-11-08, 01:11:04,VALID,1010.79,VALID,0,INVALID,138.674,VALID,0,VALID,24.0643,VALID,291,VALID,0.601172,
2014-11-08, 01:12:04,VALID,1010.81,VALID,0,INVALID,138.773,VALID,0,VALID,24.0624,VALID,291,VALID,0.445703,
2014-11-08, 01:13:04,VALID,1010.78,VALID,0,INVALID,138.865,VALID,0,VALID,24.0429,VALID,291,VALID,0.711328,
2014-11-08, 01:14:04,VALID,1010.78,VALID,0,INVALID,138.987,VALID,0,VALID,24.0448,VALID,291,VALID,0.685156,
2014-11-08, 01:15:04,VALID,1010.74,VALID,0,INVALID,139.056,VALID,0,VALID,24.0235,VALID,291,VALID,0.586328,
2014-11-08, 01:16:04,VALID,1010.74,VALID,0,INVALID,139.162,VALID,0,VALID,24.0448,VALID,291,VALID,0.182422,
2014-11-08, 01:17:04,VALID,1010.74,VALID,0,INVALID,139.201,VALID,0,VALID,24.0448,VALID,291,VALID,0.400781,
2014-11-08, 01:18:04,VALID,1010.73,VALID,0,INVALID,139.239,VALID,0,VALID,24.0448,VALID,291,VALID,0.447266,
2014-11-08, 01:19:04,VALID,1010.72,VALID,0,INVALID,139.292,VALID,0,VALID,24.0448,VALID,291,VALID,0.334375,
2014-11-08, 01:20:04,VALID,1010.69,VALID,0,INVALID,139.33,VALID,0,VALID,24.0448,VALID,291,VALID,0.0570313,
2014-11-08, 01:21:04,VALID,1010.69,VALID,0,INVALID,139.384,VALID,0,VALID,24.0448,VALID,291,VALID,0.158594,
2014-11-08, 01:22:04,VALID,1010.69,VALID,0,INVALID,139.414,VALID,0,VALID,24.0448,VALID,291,VALID,0,
2014-11-08, 01:23:04,VALID,1010.68,VALID,0,INVALID,139.452,VALID,0,VALID,24.0448,VALID,291,VALID,0,
2014-11-08, 01:24:04,VALID,1010.66,VALID,0,INVALID,139.467,VALID,0,VALID,24.0448,VALID,291,VALID,0,
2014-11-08, 01:25:04,VALID,1010.63,VALID,0,INVALID,139.513,VALID,0,VALID,24.0253,VALID,291,VALID,0,
2014-11-08, 01:26:04,VALID,1010.64,VALID,0,INVALID,139.528,VALID,0,VALID,24.0253,VALID,291,VALID,0,
2014-11-08, 01:27:04,VALID,1010.6,VALID,0,INVALID,139.544,VALID,0,VALID,24.0253,VALID,291,VALID,0,
2014-11-08, 01:28:04,VALID,1010.55,VALID,0,INVALID,139.582,VALID,0,VALID,24.0253,VALID,291,VALID,0,
2014-11-08, 01:29:04,VALID,1010.5,VALID,0,INVALID,139.612,VALID,0,VALID,24.0253,VALID,291,VALID,0,
2014-11-08, 01:30:04,VALID,1010.49,VALID,0,INVALID,139.605,VALID,0,VALID,24.0058,VALID,291,VALID,0,
2014-11-08, 01:31:04,VALID,1010.43,VALID,0,INVALID,139.567,VALID,0,VALID,23.9845,VALID,291,VALID,0,
2014-11-08, 01:32:04,VALID,1010.41,VALID,0,INVALID,139.49,VALID,0,VALID,24.0058,VALID,291,VALID,0,
2014-11-08, 01:33:04,VALID,1010.37,VALID,0,INVALID,139.422,VALID,0,VALID,24.004,VALID,291,VALID,0,
2014-11-08, 01:34:04,VALID,1010.34,VALID,0,INVALID,139.422,VALID,0,VALID,24.0058,VALID,291,VALID,0,
2014-11-08, 01:35:04,VALID,1010.33,VALID,0,INVALID,139.452,VALID,0,VALID,23.9863,VALID,291,VALID,0.317187,
2014-11-08, 01:36:04,VALID,1010.29,VALID,0,INVALID,139.521,VALID,0,VALID,23.9668,VALID,291,VALID,0.499609,
2014-11-08, 01:37:04,VALID,1010.3,VALID,0,INVALID,139.559,VALID,0,VALID,23.9473,VALID,291,VALID,0.371875,
2014-11-08, 01:38:04,VALID,1010.27,VALID,0,INVALID,139.612,VALID,0,VALID,23.9084,VALID,291,VALID,0,
2014-11-08, 01:39:04,VALID,1010.27,VALID,0,INVALID,139.605,VALID,0,VALID,23.8871,VALID,291,VALID,0.397266,
2014-11-08, 01:40:04,VALID,1010.27,VALID,0,INVALID,139.635,VALID,0,VALID,23.8694,VALID,291,VALID,0.281641,
2014-11-08, 01:41:04,VALID,1010.25,VALID,0,INVALID,139.498,VALID,0,VALID,23.8694,VALID,291,VALID,0.336328,
2014-11-08, 01:42:04,VALID,1010.26,VALID,0,INVALID,139.437,VALID,0,VALID,23.8499,VALID,291,VALID,0.339453,
2014-11-08, 01:43:04,VALID,1010.23,VALID,0,INVALID,139.353,VALID,0,VALID,23.8499,VALID,291,VALID,0.278906,
2014-11-08, 01:44:04,VALID,1010.19,VALID,0,INVALID,139.284,VALID,0,VALID,23.8091,VALID,291,VALID,0.00585938,
2014-11-08, 01:45:04,VALID,1010.18,VALID,0,INVALID,139.269,VALID,0,VALID,23.8109,VALID,291,VALID,0,
2014-11-08, 01:46:04,VALID,1010.17,VALID,0,INVALID,139.254,VALID,0,VALID,23.7914,VALID,291,VALID,0.141016,
2014-11-08, 01:47:04,VALID,1010.15,VALID,0,INVALID,139.216,VALID,0,VALID,23.7914,VALID,291,VALID,0.126953,
2014-11-08, 01:48:04,VALID,1010.13,VALID,0,INVALID,139.17,VALID,0,VALID,23.772,VALID,291,VALID,0,
2014-11-08, 01:49:04,VALID,1010.12,VALID,0,INVALID,139.117,VALID,0,VALID,23.7525,VALID,291,VALID,0,
2014-11-08, 01:50:04,VALID,1010.13,VALID,0,INVALID,139.04,VALID,0,VALID,23.7117,VALID,291,VALID,0,
2014-11-08, 01:51:04,VALID,1010.13,VALID,0,INVALID,139.01,VALID,0,VALID,23.7135,VALID,291,VALID,0,
2014-11-08, 01:52:04,VALID,1010.12,VALID,0,INVALID,139.071,VALID,0,VALID,23.694,VALID,291,VALID,0,
2014-11-08, 01:53:04,VALID,1010.1,VALID,0,INVALID,139.025,VALID,0,VALID,23.694,VALID,291,VALID,0,
2014-11-08, 01:54:04,VALID,1010.08,VALID,0,INVALID,138.979,VALID,0,VALID,23.6745,VALID,291,VALID,0,
2014-11-08, 01:55:04,VALID,1010.09,VALID,0,INVALID,138.949,VALID,0,VALID,23.655,VALID,291,VALID,0,
2014-11-08, 01:56:04,VALID,1010.07,VALID,0,INVALID,138.873,VALID,0,VALID,23.6763,VALID,291,VALID,0,
2014-11-08, 01:57:04,VALID,1010.06,VALID,0,INVALID,138.789,VALID,0,VALID,23.6356,VALID,291,VALID,0,
2014-11-08, 01:58:04,VALID,1010.05,VALID,0,INVALID,138.712,VALID,0,VALID,23.655,VALID,291,VALID,0,
2014-11-08, 01:59:04,VALID,1010.06,VALID,0,INVALID,138.529,VALID,0,VALID,23.655,VALID,291,VALID,0,
2014-11-08, 02:00:04,VALID,1010.03,VALID,0,INVALID,138.407,VALID,0,VALID,23.655,VALID,291,VALID,0,
2014-11-08, 02:01:04,VALID,1010.02,VALID,0,INVALID,138.27,VALID,0,VALID,23.655,VALID,291,VALID,0,
2014-11-08, 02:02:04,VALID,1010.03,VALID,0,INVALID,138.186,VALID,0,VALID,23.655,VALID,291,VALID,0,
2014-11-08, 02:03:04,VALID,1009.98,VALID,0,INVALID,138.141,VALID,0,VALID,23.655,VALID,291,VALID,0,
2014-11-08, 02:04:04,VALID,1009.96,VALID,0,INVALID,138.041,VALID,0,VALID,23.655,VALID,291,VALID,0,
2014-11-08, 02:05:04,VALID,1009.94,VALID,0,INVALID,138.026,VALID,0,VALID,23.6356,VALID,291,VALID,0,
2014-11-08, 02:06:04,VALID,1009.94,VALID,0,INVALID,137.988,VALID,0,VALID,23.6356,VALID,291,VALID,0,
2014-11-08, 02:07:04,VALID,1009.92,VALID,0,INVALID,137.904,VALID,0,VALID,23.6356,VALID,291,VALID,0,
2014-11-08, 02:08:04,VALID,1009.93,VALID,0,INVALID,137.813,VALID,0,VALID,23.6161,VALID,291,VALID,0,
2014-11-08, 02:09:04,VALID,1009.94,VALID,0,INVALID,137.721,VALID,0,VALID,23.6161,VALID,291,VALID,0,
2014-11-08, 02:10:04,VALID,1009.93,VALID,0,INVALID,137.721,VALID,0,VALID,23.6161,VALID,291,VALID,0,
2014-11-08, 02:11:04,VALID,1009.93,VALID,0,INVALID,137.63,VALID,0,VALID,23.6161,VALID,291,VALID,0,
2014-11-08, 02:12:04,VALID,1009.9,VALID,0,INVALID,137.546,VALID,0,VALID,23.5966,VALID,291,VALID,0,
2014-11-08, 02:13:04,VALID,1009.86,VALID,0,INVALID,137.408,VALID,0,VALID,23.5966,VALID,291,VALID,0,
2014-11-08, 02:14:04,VALID,1009.83,VALID,0,INVALID,137.286,VALID,0.112112,VALID,23.5948,VALID,291,VALID,0,
2014-11-08, 02:15:04,VALID,1009.82,VALID,0,INVALID,137.164,VALID,0,VALID,23.6161,VALID,291,VALID,0.232812,
2014-11-08, 02:16:04,VALID,1009.82,VALID,0,INVALID,136.974,VALID,0,VALID,23.6161,VALID,291,VALID,0.160938,
2014-11-08, 02:17:04,VALID,1009.81,VALID,0,INVALID,136.92,VALID,0.112112,VALID,23.6161,VALID,291,VALID,0,
2014-11-08, 02:18:04,VALID,1009.82,VALID,0,INVALID,136.852,VALID,0,VALID,23.5966,VALID,291,VALID,0,
2014-11-08, 02:19:04,VALID,1009.83,VALID,0,INVALID,136.814,VALID,0,VALID,23.5771,VALID,291,VALID,0,
2014-11-08, 02:20:04,VALID,1009.84,VALID,0,INVALID,136.852,VALID,0,VALID,23.5771,VALID,291,VALID,0,
2014-11-08, 02:21:04,VALID,1009.84,VALID,0,INVALID,136.928,VALID,0,VALID,23.5169,VALID,291,VALID,0,
2014-11-08, 02:22:04,VALID,1009.84,VALID,0,INVALID,137.004,VALID,0.112112,VALID,23.5186,VALID,291,VALID,0,
2014-11-08, 02:23:04,VALID,1009.86,VALID,0,INVALID,137.058,VALID,0,VALID,23.4584,VALID,291,VALID,0,
2014-11-08, 02:24:04,VALID,1009.85,VALID,0,INVALID,137.111,VALID,0,VALID,23.4797,VALID,291,VALID,0,
2014-11-08, 02:25:04,VALID,1009.85,VALID,0,INVALID,137.18,VALID,0.112112,VALID,23.4194,VALID,291,VALID,0,
2014-11-08, 02:26:04,VALID,1009.88,VALID,0,INVALID,137.119,VALID,0.112112,VALID,23.4212,VALID,291,VALID,0,
2014-11-08, 02:27:04,VALID,1009.88,VALID,0,INVALID,137.004,VALID,0,VALID,23.4194,VALID,291,VALID,0,
2014-11-08, 02:28:04,VALID,1009.92,VALID,0,INVALID,136.76,VALID,0,VALID,23.4602,VALID,291,VALID,0,
2014-11-08, 02:29:04,VALID,1009.92,VALID,0,INVALID,136.638,VALID,0.112112,VALID,23.4602,VALID,291,VALID,0.0265625,
2014-11-08, 02:30:04,VALID,1009.95,VALID,0,INVALID,136.402,VALID,0,VALID,23.4602,VALID,291,VALID,0.265625,
2014-11-08, 02:31:04,VALID,1009.97,VALID,0,INVALID,136.173,VALID,0,VALID,23.4992,VALID,291,VALID,0.198047,
2014-11-08, 02:32:04,VALID,1009.99,VALID,0,INVALID,136.005,VALID,0,VALID,23.4974,VALID,291,VALID,0.319922,
2014-11-08, 02:33:04,VALID,1009.98,VALID,0,INVALID,135.807,VALID,0,VALID,23.5186,VALID,291,VALID,0.04375,
2014-11-08, 02:34:04,VALID,1010.02,VALID,0,INVALID,135.662,VALID,0,VALID,23.5381,VALID,291,VALID,0.166406,
2014-11-08, 02:35:04,VALID,1010.04,VALID,0,INVALID,135.563,VALID,0,VALID,23.5169,VALID,291,VALID,0,
2014-11-08, 02:36:04,VALID,1010.02,VALID,0,INVALID,135.479,VALID,0,VALID,23.5381,VALID,291,VALID,0.00585938,
2014-11-08, 02:37:04,VALID,1010.05,VALID,0,INVALID,135.571,VALID,0,VALID,23.5186,VALID,291,VALID,0,
2014-11-08, 02:38:04,VALID,1010.03,VALID,0,INVALID,135.632,VALID,0,VALID,23.4992,VALID,291,VALID,0.000390625,
2014-11-08, 02:39:04,VALID,1010.04,VALID,0,INVALID,135.708,VALID,0,VALID,23.4797,VALID,291,VALID,0,
2014-11-08, 02:40:04,VALID,1010.06,VALID,0,INVALID,135.67,VALID,0,VALID,23.4797,VALID,291,VALID,0.219922,
2014-11-08, 02:41:04,VALID,1010.07,VALID,0,INVALID,135.639,VALID,0,VALID,23.4797,VALID,291,VALID,0,
2014-11-08, 02:42:04,VALID,1010.04,VALID,0,INVALID,135.632,VALID,0,VALID,23.4407,VALID,291,VALID,0,
2014-11-08, 02:43:04,VALID,1010.04,VALID,0,INVALID,135.655,VALID,0,VALID,23.4407,VALID,291,VALID,0,
2014-11-08, 02:44:04,VALID,1010.03,VALID,0,INVALID,135.685,VALID,0,VALID,23.4407,VALID,291,VALID,0,
2014-11-08, 02:45:04,VALID,1010.07,VALID,0,INVALID,135.708,VALID,0,VALID,23.4017,VALID,291,VALID,0,
2014-11-08, 02:46:04,VALID,1010.07,VALID,0,INVALID,135.685,VALID,0,VALID,23.4212,VALID,291,VALID,0,
2014-11-08, 02:47:04,VALID,1010.06,VALID,0,INVALID,135.609,VALID,0.112112,VALID,23.4,VALID,291,VALID,0,
2014-11-08, 02:48:04,VALID,1010.08,VALID,0,INVALID,135.533,VALID,0.112112,VALID,23.4407,VALID,291,VALID,0,
2014-11-08, 02:49:04,VALID,1010.08,VALID,0,INVALID,135.418,VALID,0,VALID,23.4212,VALID,291,VALID,0,
2014-11-08, 02:50:04,VALID,1010.11,VALID,0,INVALID,135.38,VALID,0,VALID,23.4407,VALID,291,VALID,0,
2014-11-08, 02:51:04,VALID,1010.12,VALID,0,INVALID,135.296,VALID,0,VALID,23.4212,VALID,291,VALID,0,
2014-11-08, 02:52:04,VALID,1010.14,VALID,0,INVALID,135.258,VALID,0,VALID,23.4407,VALID,291,VALID,0,
2014-11-08, 02:53:04,VALID,1010.13,VALID,0,INVALID,135.159,VALID,0,VALID,23.4407,VALID,291,VALID,0,
2014-11-08, 02:54:04,VALID,1010.13,VALID,0,INVALID,135.151,VALID,0,VALID,23.4407,VALID,291,VALID,0,
2014-11-08, 02:55:04,VALID,1010.14,VALID,0,INVALID,135.182,VALID,0,VALID,23.4212,VALID,291,VALID,0,
2014-11-08, 02:56:04,VALID,1010.16,VALID,0,INVALID,135.182,VALID,0,VALID,23.4017,VALID,291,VALID,0.0285156,
2014-11-08, 02:57:04,VALID,1010.16,VALID,0,INVALID,135.067,VALID,0.112112,VALID,23.4212,VALID,291,VALID,0.151953,
2014-11-08, 02:58:04,VALID,1010.15,VALID,0,INVALID,135.052,VALID,0.112112,VALID,23.4017,VALID,291,VALID,0,
2014-11-08, 02:59:04,VALID,1010.16,VALID,0,INVALID,135.075,VALID,0,VALID,23.3805,VALID,291,VALID,0,
2014-11-08, 03:00:04,VALID,1010.15,VALID,0,INVALID,135.128,VALID,0,VALID,23.4017,VALID,291,VALID,0.107813,
2014-11-08, 03:01:04,VALID,1010.16,VALID,0,INVALID,135.136,VALID,0,VALID,23.3823,VALID,291,VALID,0.158594,
2014-11-08, 03:02:04,VALID,1010.16,VALID,0,INVALID,135.212,VALID,0,VALID,23.3628,VALID,291,VALID,0,
2014-11-08, 03:03:04,VALID,1010.15,VALID,0,INVALID,135.227,VALID,0,VALID,23.322,VALID,291,VALID,0,
2014-11-08, 03:04:04,VALID,1010.15,VALID,0,INVALID,135.197,VALID,0,VALID,23.3433,VALID,291,VALID,0,
2014-11-08, 03:05:04,VALID,1010.12,VALID,0,INVALID,135.151,VALID,0,VALID,23.3043,VALID,291,VALID,0,
2014-11-08, 03:06:04,VALID,1010.13,VALID,0,INVALID,135.182,VALID,0,VALID,23.3238,VALID,291,VALID,0,
2014-11-08, 03:07:04,VALID,1010.14,VALID,0,INVALID,135.189,VALID,0,VALID,23.3043,VALID,291,VALID,0,
2014-11-08, 03:08:04,VALID,1010.15,VALID,0,INVALID,135.144,VALID,0,VALID,23.2636,VALID,291,VALID,0,
2014-11-08, 03:09:04,VALID,1010.15,VALID,0,INVALID,135.113,VALID,0.112112,VALID,23.3043,VALID,291,VALID,0,
2014-11-08, 03:10:04,VALID,1010.14,VALID,0,INVALID,134.991,VALID,0,VALID,23.2831,VALID,291,VALID,0,
2014-11-08, 03:11:04,VALID,1010.13,VALID,0,INVALID,135.014,VALID,0.112112,VALID,23.3043,VALID,291,VALID,0,
2014-11-08, 03:12:04,VALID,1010.13,VALID,0,INVALID,135.067,VALID,0.112112,VALID,23.2654,VALID,291,VALID,0,
2014-11-08, 03:13:04,VALID,1010.14,VALID,0,INVALID,135.067,VALID,0.112112,VALID,23.2459,VALID,291,VALID,0,
2014-11-08, 03:14:04,VALID,1010.11,VALID,0,INVALID,134.983,VALID,0,VALID,23.2831,VALID,291,VALID,0,
2014-11-08, 03:15:04,VALID,1010.12,VALID,0,INVALID,134.877,VALID,0.112112,VALID,23.3043,VALID,291,VALID,0,
2014-11-08, 03:16:04,VALID,1010.14,VALID,0,INVALID,134.587,VALID,0,VALID,23.3238,VALID,291,VALID,0,
2014-11-08, 03:17:04,VALID,1010.13,VALID,0,INVALID,134.396,VALID,0,VALID,23.3415,VALID,291,VALID,0,
2014-11-08, 03:18:04,VALID,1010.13,VALID,0,INVALID,134.274,VALID,0.112112,VALID,23.3628,VALID,291,VALID,0,
2014-11-08, 03:19:04,VALID,1010.17,VALID,0,INVALID,134.259,VALID,0,VALID,23.3628,VALID,291,VALID,0,
2014-11-08, 03:20:04,VALID,1010.18,VALID,0,INVALID,134.236,VALID,0,VALID,23.322,VALID,291,VALID,0,
2014-11-08, 03:21:04,VALID,1010.18,VALID,0,INVALID,134.267,VALID,0,VALID,23.3433,VALID,291,VALID,0,
2014-11-08, 03:22:04,VALID,1010.19,VALID,0,INVALID,134.282,VALID,0,VALID,23.3238,VALID,291,VALID,0,
2014-11-08, 03:23:04,VALID,1010.16,VALID,0,INVALID,134.366,VALID,0,VALID,23.3238,VALID,291,VALID,0,
2014-11-08, 03:24:04,VALID,1010.18,VALID,0,INVALID,134.389,VALID,0.112112,VALID,23.2636,VALID,291,VALID,0,
2014-11-08, 03:25:04,VALID,1010.16,VALID,0,INVALID,134.343,VALID,0,VALID,23.2848,VALID,291,VALID,0,
2014-11-08, 03:26:04,VALID,1010.17,VALID,0,INVALID,134.297,VALID,0,VALID,23.2848,VALID,291,VALID,0,
2014-11-08, 03:27:04,VALID,1010.14,VALID,0,INVALID,134.244,VALID,0,VALID,23.2848,VALID,291,VALID,0,
2014-11-08, 03:28:04,VALID,1010.18,VALID,0,INVALID,134.183,VALID,0,VALID,23.2441,VALID,291,VALID,0,
2014-11-08, 03:29:04,VALID,1010.22,VALID,0,INVALID,134.152,VALID,0,VALID,23.2848,VALID,291,VALID,0,
2014-11-08, 03:30:04,VALID,1010.21,VALID,0,INVALID,134.084,VALID,0,VALID,23.2441,VALID,291,VALID,0,
2014-11-08, 03:31:04,VALID,1010.23,VALID,0,INVALID,134.053,VALID,0,VALID,23.2654,VALID,291,VALID,0,
2014-11-08, 03:32:04,VALID,1010.23,VALID,0,INVALID,133.923,VALID,0,VALID,23.2636,VALID,291,VALID,0,
2014-11-08, 03:33:04,VALID,1010.25,VALID,0,INVALID,133.84,VALID,0.112112,VALID,23.2848,VALID,291,VALID,0,
2014-11-08, 03:34:04,VALID,1010.22,VALID,0,INVALID,133.733,VALID,0.112112,VALID,23.3043,VALID,291,VALID,0,
2014-11-08, 03:35:04,VALID,1010.23,VALID,0,INVALID,133.718,VALID,0,VALID,23.2831,VALID,291,VALID,0,
2014-11-08, 03:36:04,VALID,1010.26,VALID,0,INVALID,133.702,VALID,0,VALID,23.2636,VALID,291,VALID,0,
2014-11-08, 03:37:04,VALID,1010.26,VALID,0,INVALID,133.779,VALID,0,VALID,23.2654,VALID,291,VALID,0,
2014-11-08, 03:38:04,VALID,1010.27,VALID,0,INVALID,133.901,VALID,0,VALID,23.2264,VALID,291,VALID,0,
2014-11-08, 03:39:04,VALID,1010.3,VALID,0,INVALID,133.832,VALID,0.112112,VALID,23.2459,VALID,291,VALID,0,
2014-11-08, 03:40:04,VALID,1010.28,VALID,0,INVALID,133.695,VALID,0.112112,VALID,23.2459,VALID,291,VALID,0.178516,
2014-11-08, 03:41:04,VALID,1010.31,VALID,0,INVALID,133.641,VALID,0,VALID,23.2459,VALID,291,VALID,0.394531,
2014-11-08, 03:42:04,VALID,1010.31,VALID,0,INVALID,133.496,VALID,0.112112,VALID,23.2441,VALID,291,VALID,0.280469,
2014-11-08, 03:43:04,VALID,1010.32,VALID,0,INVALID,133.26,VALID,0,VALID,23.2848,VALID,291,VALID,0.158594,
2014-11-08, 03:44:04,VALID,1010.31,VALID,0,INVALID,133.024,VALID,0,VALID,23.3238,VALID,291,VALID,0.514844,
2014-11-08, 03:45:04,VALID,1010.29,VALID,0,INVALID,132.894,VALID,0.112112,VALID,23.3628,VALID,291,VALID,0.559766,
2014-11-08, 03:46:04,VALID,1010.3,VALID,0,INVALID,132.802,VALID,0,VALID,23.3628,VALID,291,VALID,0.825781,
2014-11-08, 03:47:04,VALID,1010.26,VALID,0,INVALID,132.78,VALID,0.112112,VALID,23.3628,VALID,291,VALID,0.39375,
2014-11-08, 03:48:04,VALID,1010.27,VALID,0,INVALID,132.741,VALID,0.112112,VALID,23.3628,VALID,291,VALID,0.329688,